Location: Antist
(43.1184°N, 0.1270°E)
Time: 16:02:51
(UTC+00:00)

Daily predictions for brighter satellites

Satellite Brightness Start Highest point End
(mag) Time Altitude Azimuth Time Altitude Azimuth Time Altitude Azimuth
Cosmos 2360 Rocket 3.0 17:16:58 10° NNW 17:22:31 60° WSW 17:28:01 10° S
Cosmos 2228 4.1 17:19:43 10° NNW 17:23:55 50° W 17:28:04 10° SSW
Cosmos 2150 Rocket 4.0 17:19:49 10° S 17:24:56 67° ESE 17:30:03 10° NNE
Cosmos 2227 Rocket 3.8 17:25:23 10° SE 17:28:13 14° E 17:31:04 10° ENE
CZ-4 R/B 2.6 17:25:40 10° ESE 17:28:47 22° ENE 17:31:56 10° NNE
COSMOS 2428 2.9 17:23:23 10° NNW 17:29:01 54° ENE 17:34:38 10° SE
Cosmos 2219 Rocket 2.3 17:25:14 10° NNW 17:30:51 57° ENE 17:36:24 10° SE
SKYMED 2 4.4 17:29:29 10° NNE 17:33:24 32° E 17:37:17 10° SSE
Cosmos 2184 Rocket 4.0 17:27:50 10° S 17:34:00 78° E 17:40:11 10° N
USA 234 3.7 17:27:45 10° SE 17:34:13 67° SW 17:40:45 10° NW
Cosmos 2154 Rocket 4.1 17:35:45 10° SSE 17:41:52 57° E 17:47:59 10° NNE
Cosmos 1125 Rocket 3.6 17:39:03 10° S 17:44:06 55° ESE 17:49:10 10° NNE
Cosmos 1812 Rocket 3.9 17:42:00 10° N 17:46:17 44° ENE 17:50:34 10° SSE
YAOGAN 1 3.2 17:49:21 10° SE 17:53:13 32° ENE 17:57:05 10° N
Envisat 3.1 17:51:57 10° SSE 17:57:02 83° WSW 18:02:09 10° NNW
Cosmos 1610 Rocket 4.4 17:52:12 10° S 17:58:18 82° E 18:04:29 10° N
Cosmos 1269 Rocket 4.4 17:56:23 10° N 18:01:22 40° ENE 18:06:19 10° SE
CSL-04 Debris 4.4 18:00:36 10° SE 18:05:43 47° ENE 18:10:52 10° N
Cosmos 1048 Rocket 4.0 18:01:05 10° NNW 18:06:15 83° WSW 18:11:21 10° SSE
Cosmos-2242 3.8 18:03:27 10° NNE 18:07:13 28° ENE 18:10:56 10° SE
CZ-4C R/B 2.9 18:00:51 10° NNW 18:08:07 74° NE 18:16:24 10° SE
Cosmos 1295 Rocket 4.5 18:02:57 10° S 18:09:14 71° E 18:15:32 10° NNE
CZ-2D R/B 3.9 18:06:02 10° SE 18:09:26 32° ENE 18:12:52 10° N
Starlink AQ 4.1 18:09:17 10° W 18:11:54 30° NNW 18:13:16 20° NNE
Cosmos 1602 Rocket 3.7 18:07:43 10° SSW 18:12:07 78° W 18:16:31 10° N
ISS -1.6 18:10:47 10° SSE 18:12:25 13° SE 18:12:26 13° SE
Starlink AR 4.1 18:10:54 10° W 18:13:02 24° NNW 18:13:57 19° N
Starlink AS 4.2 18:11:51 10° W 18:14:26 29° NNW 18:15:42 20° NNE
Starlink BA 4.2 18:12:03 10° W 18:14:39 29° NNW 18:15:54 20° NNE
Starlink AU 4.2 18:12:16 10° W 18:14:52 28° NNW 18:16:06 20° NNE
Meteor 2-10 Rocket 4.2 18:10:14 10° N 18:15:01 31° ENE 18:19:36 10° SE
Starlink AT 4.2 18:12:30 10° W 18:15:05 28° NNW 18:16:20 20° NNE
Starlink BB 4.2 18:12:43 10° W 18:15:18 28° NNW 18:16:32 21° NNE
Starlink BC 4.2 18:12:57 10° W 18:15:32 28° NNW 18:16:45 21° NNE
ATLAS CENTAUR R/B 4.4 18:10:17 10° W 18:15:44 49° NNW 18:28:23 13° NE
Starlink BK 4.2 18:13:10 10° W 18:15:45 28° NNW 18:16:58 21° NNE
Starlink AY 4.2 18:13:24 10° W 18:15:59 28° NNW 18:17:11 21° NNE
Starlink AW 4.2 18:13:37 10° W 18:16:12 28° NNW 18:17:23 21° NNE
Starlink BJ 4.2 18:13:48 10° W 18:16:23 28° NNW 18:17:34 21° NNE
Starlink AV 4.2 18:14:02 10° W 18:16:36 28° NNW 18:17:47 21° NNE
Starlink BD 4.2 18:14:15 10° W 18:16:50 28° NNW 18:18:00 21° NNE
Starlink BE 4.3 18:14:28 10° W 18:17:03 28° NNW 18:18:13 21° NNE
Starlink BM 4.3 18:14:42 10° W 18:17:16 28° NNW 18:18:25 21° NNE
Starlink AX 4.3 18:14:55 10° W 18:17:29 27° NNW 18:18:38 21° NNE
Starlink BH 4.3 18:15:09 10° W 18:17:44 27° NNW 18:18:51 21° NNE
Cosmos 2333 Rocket 2.9 18:12:18 10° NNW 18:17:55 59° WSW 18:23:28 10° S
Starlink AZ 4.3 18:15:23 10° W 18:17:56 27° NNW 18:19:03 21° NNE
Starlink BG 4.3 18:15:36 10° W 18:18:10 27° NNW 18:19:17 21° NNE
Starlink BF 4.3 18:15:50 10° W 18:18:23 27° NNW 18:19:29 21° NNE
Starlink BL 4.3 18:16:00 10° W 18:18:35 27° NNW 18:19:41 21° NNE
Starlink AH 4.3 18:16:15 10° W 18:18:48 27° NNW 18:19:53 21° NNE
Starlink AC 4.3 18:16:28 10° W 18:19:01 27° NNW 18:20:06 21° NNE
Starlink X 4.3 18:16:41 10° W 18:19:14 27° NNW 18:20:18 21° NNE
Starlink AE 4.3 18:16:54 10° W 18:19:28 27° NNW 18:20:32 21° NNE
Cosmos 962 Rocket 4.4 18:13:25 10° S 18:19:28 70° E 18:25:36 10° NNE
Starlink Z 4.3 18:17:08 10° W 18:19:41 27° NNW 18:20:44 21° NNE
Cosmos 2237 Rocket 2.3 18:14:23 10° NNW 18:19:54 53° ENE 18:25:23 10° SE
Starlink AK 4.3 18:17:22 10° W 18:19:55 27° NNW 18:20:57 21° N
Starlink AL 4.3 18:17:35 10° W 18:20:08 26° NNW 18:21:10 21° N
Starlink AD 4.3 18:17:48 10° W 18:20:20 26° NNW 18:21:22 21° N
Meteor 1-21 Rocket 4.2 18:15:06 10° S 18:20:32 57° E 18:26:05 10° NNE
Starlink Y 4.3 18:18:15 10° W 18:20:47 26° NNW 18:21:48 21° N
Starlink AG 4.3 18:18:28 10° W 18:21:01 26° NNW 18:22:00 21° N
Starlink W 4.3 18:18:40 10° W 18:21:13 26° NNW 18:22:13 21° N
Starlink AJ 4.3 18:18:55 10° W 18:21:26 26° NNW 18:22:25 21° N
COSMO-SKYMED 1 2.7 18:17:15 10° N 18:21:37 77° WNW 18:25:57 10° SSW
Starlink AM 4.4 18:19:21 10° W 18:21:52 26° NNW 18:22:50 21° N
Starlink AP 4.4 18:19:34 10° W 18:22:06 26° NNW 18:23:03 21° N
Cosmos 1461 3.9 18:17:57 10° NW 18:22:11 51° WSW 18:26:34 10° SSE
Starlink AA 4.4 18:19:48 10° W 18:22:19 26° NNW 18:23:16 21° N
Cosmos 1340 Rocket 2.9 18:18:33 10° NNW 18:22:30 79° W 18:26:28 10° S
Starlink AF 4.4 18:20:02 10° W 18:22:33 26° NNW 18:23:30 21° N
Cosmos 1300 3.6 18:18:55 10° NNW 18:22:37 51° W 18:26:20 10° S
Starlink AB 4.4 18:20:15 10° W 18:22:47 26° NNW 18:23:42 22° N
Starlink AN 4.4 18:20:28 10° W 18:22:59 26° NNW 18:23:54 22° N
Okean-O 3.7 18:19:06 10° S 18:23:22 48° W 18:27:41 10° NNW
Cosmos 1953 Rocket 4.1 18:19:24 10° SSE 18:23:28 35° E 18:25:10 26° NE
Nadezhda 3 Rocket 4.3 18:20:36 10° NNW 18:26:50 70° W 18:33:07 10° S
ADEOS Rocket 3.7 18:21:37 10° NNE 18:27:41 39° E 18:34:18 10° SSE
Cosmos 1758 Rocket 3.4 18:24:33 10° S 18:28:49 68° E 18:33:08 10° NNE
Starlink N 4.5 18:30:38 10° WNW 18:33:02 23° NNW 18:33:31 22° N
CSL-04 Rocket 3.6 18:30:01 10° SSE 18:35:29 82° ENE 18:41:03 10° NNW
ERBS 2.4 18:33:33 10° SSW 18:36:48 54° SE 18:36:50 54° SE
Cosmos 1727 Rocket 4.4 18:31:35 10° N 18:37:15 36° ENE 18:42:52 10° SE
Cosmos 1939 Rocket 2.6 18:34:16 10° SSE 18:38:07 71° ENE 18:42:03 10° N
Cosmos 1455 4.1 18:35:37 10° N 18:36:37 17° N 18:36:37 17° N
SL-16 R/B 2.9 18:34:44 10° N 18:39:46 31° NE 18:39:50 31° NE
Cosmos 44 4.2 18:36:15 10° S 18:39:36 27° SE 18:39:36 27° SE
Ariane Rocket 3.3 18:37:49 23° SE 18:40:28 41° ENE 18:45:12 10° N
Cosmos 2219 3.1 18:36:57 10° SSW 18:42:35 88° WNW 18:46:52 18° NNE
H-2A R/B 4.0 18:46:39 13° NNE 18:46:39 13° NNE 18:47:15 10° NNE
Cosmos 2341 Rocket 4.1 18:37:34 10° S 18:43:58 84° W 18:50:22 10° N
Cosmos 1626 4.4 18:41:15 10° SW 18:44:18 24° WNW 18:47:23 10° NNW
NOSS 0 Rocket 4.2 18:38:54 10° NNW 18:45:06 70° WSW 18:51:14 10° SSE
Cosmos 494 Rocket 4.3 18:40:26 10° NNW 18:45:31 66° WSW 18:50:35 10° S
ATLAS 5 CENTAUR R/B 4.1 18:43:38 10° WNW 18:46:00 14° NNW 18:48:32 10° N
SL-8 R/B 4.3 18:42:01 10° SSW 18:46:28 38° SE 18:46:59 37° SE
Cosmos 2082 4.1 18:41:53 10° S 18:47:02 39° ESE 18:47:23 38° E
SL-8 Rocket 3.9 18:43:25 10° S 18:49:43 80° E 18:56:02 10° N
Cosmos 1825 Rocket 3.7 18:50:45 10° SSW 18:55:05 70° W 18:58:40 15° N
Cosmos 2297 Rocket 2.1 18:53:52 10° SSW 18:59:31 89° ESE 19:02:20 31° NNE
Cosmos 1980 4.0 18:56:03 10° NNW 19:01:43 69° WSW 19:07:20 10° SSE
DELTA 2 R/B (1) 3.9 18:57:28 10° WSW 19:02:55 55° S 19:04:00 47° SE
CZ-4 R/B 3.3 19:00:03 10° SSW 19:03:37 31° W 19:07:17 10° NNW
NOSS 2-1 (C) 4.4 19:03:15 10° NNW 19:08:44 74° NE 19:11:34 38° SE
Cosmos 2227 Rocket 2.2 19:05:49 10° SSW 19:11:29 82° WNW 19:13:40 39° NNE
NOSS 2-1 (D) 4.4 19:07:03 10° NW 19:12:33 79° NE 19:15:24 39° SE
SL-08 R/B 4.4 19:09:51 10° S 19:16:03 70° E 19:19:31 28° NNE
Cosmos 2218 Rocket 4.1 19:12:24 10° SSW 19:18:42 75° W 19:25:08 10° N
Atlas Centaur 2 4.2 19:22:15 10° SSW 19:24:53 16° SSE 19:24:53 16° SSE
FALCON 9 R/B 4.2 19:21:54 10° SW 19:31:57 24° S 19:33:10 23° SSE
ISS -0.3 19:45:23 10° WSW 19:45:24 10° WSW 19:45:24 10° WSW
Cosmos 2237 Rocket 4.4 19:59:16 10° NW 20:03:32 23° W 20:07:48 10° SSW
ADEOS Rocket 4.3 20:07:13 10° N 20:13:09 40° WNW 20:19:39 10° SW
SL-16 R/B 3.8 20:18:41 10° NW 20:21:47 29° WNW 20:21:47 29° WNW
